User: anonymous   Login
Location: ??
(35.4032°N, 139.3073°E)
Time: 03:49:53
(UTC+00:00)
Language:

Resurs 1-4 Rocket - Orbit

View from above orbital plane
View from above orbital plane
View from above satellite
View from above satellite

Ground track
Ground track

The orbit data is extracted from the following two-line orbital elements,

1 25400U 98043G   24164.83975452  .00000150  00000-0  81827-4 0  9991
2 25400  98.7448 105.9094 0010883  60.3372 299.8890 14.25757041348514
Epoch (UTC): 12 June 2024 20:09:14
Eccentricity: 0.0010883
inclination: 98.7448°
perigee height: 798 km
apogee height: 814 km
right ascension of ascending node: 105.9094°
argument of perigee: 60.3372°
revolutions per day: 14.25757041
mean anomaly at epoch: 299.8890°
orbit number at epoch: 34851

The dashed part of the orbit path shows where the satellite is in the earth's shadow,  

DLR